contact:dominique.lefevre@mio.osupytheas.fr, maurice.libes@osupytheas.fr
Project:EMSO Ligure-ouest http://www.emso-fr.org/EMSO-France
Sensor Aquadopp, line 13 Serial AQD14315 
DOI : "https://doi.org/10.17882/74513; https://doi.org/10.17882/83244" 
Title:EMSO Ligure Ouest : Data ligne ALBATROSS capteur AQUADOPP - deploiement 2021
Id,Date,Profondeur,Latitude,Longitude,X_East,Y_North,Z_Up,Amplitude_X,Amplitude_Y,Amplitude_Z,Batterie,SoundSpeed,Heading,Pitch,Roll,Pressure,Temperature,Speed,Direction
, , m, degrees North, degrees East, m.s-1, m.s-1,m.s-1, 1, 1, 1, Volt, m.s-1, degree, degree, degree, dbar, degree_C, m.s-1, degree
07,2021-12-14T21:30:00,1500.0,42.79,6.0312,0.049,-0.004,-0.009,53.0,53.0,54.0,12.5,1504.1,87.8,0.0,-0.3,1472.753,13.12,0.049,94.7
07,2021-12-14T22:00:00,1500.0,42.79,6.0312,0.043,-0.004,-0.014,51.0,54.0,53.0,12.5,1504.1,91.6,0.0,-0.3,1472.747,13.12,0.043,95.3
07,2021-12-14T22:30:00,1500.0,42.79,6.0312,0.051,-0.005,-0.005,52.0,52.0,52.0,12.5,1504.1,94.2,0.0,-0.1,1472.735,13.13,0.051,95.6
07,2021-12-14T23:00:00,1500.0,42.79,6.0312,0.046,-0.026,-0.011,53.0,53.0,55.0,12.5,1504.1,104.2,0.0,-0.3,1472.783,13.13,0.052,119.5
07,2021-12-14T23:30:00,1500.0,42.79,6.0312,0.054,-0.027,-0.016,52.0,54.0,53.0,12.5,1504.1,99.8,0.0,-0.1,1472.752,13.12,0.06,116.6
07,2021-12-15T00:00:00,1500.0,42.79,6.0312,0.064,0.007,-0.022,51.0,54.0,52.0,12.6,1504.1,77.7,-0.4,-0.3,1472.732,13.13,0.064,83.8
07,2021-12-15T00:30:00,1500.0,42.79,6.0312,0.06,-0.008,-0.015,52.0,54.0,52.0,12.5,1504.1,89.2,-0.4,-0.1,1472.752,13.13,0.06,97.6
07,2021-12-15T01:00:00,1500.0,42.79,6.0312,0.041,-0.049,-0.015,52.0,52.0,52.0,12.5,1504.1,111.4,-0.4,-0.2,1472.753,13.13,0.063,140.1
07,2021-12-15T01:30:00,1500.0,42.79,6.0312,0.053,-0.03,0.016,52.0,53.0,54.0,12.5,1504.2,98.2,-0.1,-0.2,1472.766,13.14,0.06,119.5
07,2021-12-15T02:00:00,1500.0,42.79,6.0312,0.054,-0.036,0.006,52.0,52.0,52.0,12.5,1504.2,113.5,-0.3,-0.3,1472.792,13.14,0.064,123.7
07,2021-12-15T02:30:00,1500.0,42.79,6.0312,0.042,-0.011,0.016,52.0,52.0,52.0,12.6,1504.2,102.5,-0.1,-0.1,1472.803,13.14,0.043,104.7
07,2021-12-15T03:00:00,1500.0,42.79,6.0312,0.037,-0.021,-0.005,53.0,52.0,52.0,12.5,1504.2,111.8,-0.1,-0.3,1472.829,13.14,0.042,119.6
07,2021-12-15T03:30:00,1500.0,42.79,6.0312,0.023,-0.016,0.0,53.0,54.0,53.0,12.5,1504.2,126.2,-0.2,-0.4,1472.837,13.14,0.028,124.8
07,2021-12-15T04:00:00,1500.0,42.79,6.0312,0.032,-0.02,0.002,52.0,54.0,52.0,12.5,1504.1,133.2,-0.1,-0.2,1472.817,13.13,0.037,122.0
07,2021-12-15T04:30:00,1500.0,42.79,6.0312,0.029,-0.005,-0.007,52.0,52.0,52.0,12.5,1504.1,132.6,0.0,-0.4,1472.848,13.13,0.029,99.8
07,2021-12-15T05:00:00,1500.0,42.79,6.0312,0.022,-0.01,-0.011,53.0,52.0,52.0,12.6,1504.2,137.7,0.0,-0.1,1472.819,13.14,0.024,114.4
07,2021-12-15T05:30:00,1500.0,42.79,6.0312,0.029,-0.011,-0.003,53.0,53.0,53.0,12.5,1504.1,137.6,0.0,-0.4,1472.824,13.13,0.031,110.8
07,2021-12-15T06:00:00,1500.0,42.79,6.0312,0.015,-0.008,0.0,51.0,55.0,51.0,12.5,1504.1,136.0,-0.2,-0.2,1472.85,13.13,0.017,118.1
07,2021-12-15T06:30:00,1500.0,42.79,6.0312,0.026,-0.004,-0.008,52.0,54.0,52.0,12.5,1504.2,137.5,-0.3,-0.2,1472.874,13.14,0.026,98.7
07,2021-12-15T07:00:00,1500.0,42.79,6.0312,0.007,0.0,-0.008,50.0,52.0,53.0,12.5,1504.2,144.2,-0.1,-0.1,1472.851,13.14,0.007,90.0
07,2021-12-15T07:30:00,1500.0,42.79,6.0312,0.021,-0.002,0.007,52.0,52.0,52.0,12.5,1504.2,151.9,0.1,-0.4,1472.838,13.14,0.021,95.4
07,2021-12-15T08:00:00,1500.0,42.79,6.0312,0.025,-0.006,0.008,53.0,52.0,52.0,12.5,1504.1,153.2,0.3,-0.3,1472.836,13.13,0.025,103.5
07,2021-12-15T08:30:00,1500.0,42.79,6.0312,0.017,0.015,0.009,52.0,55.0,54.0,12.5,1504.1,158.9,-0.3,-0.5,1472.853,13.13,0.022,48.6
07,2021-12-15T09:00:00,1500.0,42.79,6.0312,0.021,0.004,-0.004,53.0,52.0,54.0,12.5,1504.1,152.1,0.1,-0.1,1472.83,13.13,0.021,79.2
07,2021-12-15T09:30:00,1500.0,42.79,6.0312,0.014,-0.001,-0.006,53.0,55.0,53.0,12.5,1504.1,165.3,0.2,-0.3,1472.834,13.13,0.014,94.1
07,2021-12-15T10:00:00,1500.0,42.79,6.0312,0.012,0.002,0.003,53.0,55.0,51.0,12.5,1504.1,162.5,0.5,-0.3,1472.807,13.13,0.012,80.5
07,2021-12-15T10:30:00,1500.0,42.79,6.0312,0.016,0.01,0.023,53.0,54.0,52.0,12.5,1504.1,159.3,-0.2,-0.4,1472.803,13.13,0.018,58.0
07,2021-12-15T11:00:00,1500.0,42.79,6.0312,0.015,0.02,-0.008,51.0,55.0,54.0,12.5,1504.1,160.5,0.1,-0.3,1472.787,13.13,0.025,36.9
07,2021-12-15T11:30:00,1500.0,42.79,6.0312,0.029,0.011,0.003,54.0,53.0,53.0,12.5,1504.1,166.4,0.2,-0.3,1472.797,13.13,0.031,69.2
07,2021-12-15T12:00:00,1500.0,42.79,6.0312,0.038,-0.005,-0.002,54.0,55.0,55.0,12.5,1504.1,153.4,-0.8,-0.1,1472.826,13.12,0.038,97.5
07,2021-12-15T12:30:00,1500.0,42.79,6.0312,0.031,-0.005,-0.008,50.0,53.0,55.0,12.5,1504.1,53.7,0.4,-0.3,1472.817,13.13,0.031,99.2
07,2021-12-15T13:00:00,1500.0,42.79,6.0312,0.027,-0.004,-0.005,53.0,55.0,54.0,12.6,1504.1,69.7,0.1,-0.4,1472.834,13.13,0.027,98.4
07,2021-12-15T13:30:00,1500.0,42.79,6.0312,0.028,-0.002,0.003,53.0,53.0,51.0,12.5,1504.1,62.6,0.0,-0.4,1472.824,13.13,0.028,94.1
07,2021-12-15T14:00:00,1500.0,42.79,6.0312,0.042,-0.004,0.007,53.0,54.0,55.0,12.5,1504.1,61.2,-0.1,0.0,1472.848,13.13,0.042,95.4
07,2021-12-15T14:30:00,1500.0,42.79,6.0312,0.04,-0.006,-0.006,53.0,52.0,52.0,12.5,1504.1,66.2,-0.2,-0.4,1472.857,13.13,0.04,98.5
07,2021-12-15T15:00:00,1500.0,42.79,6.0312,0.044,0.004,0.0,54.0,53.0,51.0,12.5,1504.1,61.2,0.5,-0.4,1472.874,13.13,0.044,84.8
07,2021-12-15T15:30:00,1500.0,42.79,6.0312,0.037,-0.009,-0.006,51.0,53.0,52.0,12.5,1504.1,72.3,-0.1,-0.3,1472.87,13.13,0.038,103.7
07,2021-12-15T16:00:00,1500.0,42.79,6.0312,0.038,-0.009,-0.015,54.0,53.0,52.0,12.6,1504.1,77.0,-0.1,-0.4,1472.897,13.13,0.039,103.3
07,2021-12-15T16:30:00,1500.0,42.79,6.0312,0.038,-0.013,-0.001,52.0,52.0,53.0,12.5,1504.2,83.8,-0.5,-0.3,1472.922,13.14,0.04,108.9
07,2021-12-15T17:00:00,1500.0,42.79,6.0312,0.048,-0.009,0.001,52.0,54.0,52.0,12.5,1504.2,90.1,-0.1,-0.2,1472.918,13.14,0.048,100.6
07,2021-12-15T17:30:00,1500.0,42.79,6.0312,0.037,-0.006,0.014,53.0,52.0,52.0,12.5,1504.2,98.8,-0.1,-0.4,1472.962,13.14,0.037,99.2
07,2021-12-15T18:00:00,1500.0,42.79,6.0312,0.033,-0.015,-0.008,51.0,52.0,54.0,12.5,1504.2,91.0,-0.1,-0.2,1472.884,13.14,0.036,114.4
07,2021-12-15T18:30:00,1500.0,42.79,6.0312,0.038,-0.023,0.002,51.0,53.0,53.0,12.5,1504.2,96.8,0.0,0.0,1472.947,13.14,0.044,121.2
07,2021-12-15T19:00:00,1500.0,42.79,6.0312,0.057,-0.013,-0.001,53.0,52.0,52.0,12.5,1504.2,101.7,-0.1,-0.3,1472.869,13.14,0.058,102.8
07,2021-12-15T19:30:00,1500.0,42.79,6.0312,0.029,-0.023,0.004,53.0,55.0,53.0,12.5,1504.2,109.8,-0.1,-0.1,1472.89,13.14,0.037,128.4
07,2021-12-15T20:00:00,1500.0,42.79,6.0312,0.04,-0.017,0.015,53.0,54.0,52.0,12.5,1504.2,105.3,0.0,-0.4,1472.876,13.14,0.043,113.0
07,2021-12-15T20:30:00,1500.0,42.79,6.0312,0.027,-0.017,-0.004,52.0,53.0,53.0,12.5,1504.2,113.0,0.0,-0.4,1472.837,13.14,0.031,122.2
07,2021-12-15T21:00:00,1500.0,42.79,6.0312,0.025,-0.009,-0.006,55.0,54.0,54.0,12.5,1504.2,114.4,-0.2,-0.3,1472.791,13.14,0.026,109.8
